Location: Ehingen
(48.2869°N, 9.7112°E)
Time: 15:22:06
(UTC+01:00)

ISS - Visible Passes

Search period start: 23 March 2017 00:00
Search period end: 02 April 2017 01:00
Orbit: 399 x 409 km, 51.6° (Epoch: 23 March)

Date Brightness Start Highest point End Pass type
(mag) Time Alt. Az. Time Alt. Az. Time Alt. Az.
23 Mar -2.0 04:30:04 20° S 04:30:04 20° S 04:31:30 10° SSE visible
27 Mar -1.5 21:50:25 10° SW 21:51:11 16° SW 21:51:11 16° SW visible
28 Mar -2.8 20:58:29 10° SSW 21:01:17 26° SE 21:01:54 25° ESE visible
28 Mar -0.8 22:34:16 10° WSW 22:34:36 12° WSW 22:34:36 12° WSW visible
29 Mar -4.0 21:41:52 10° WSW 21:45:02 78° S 21:45:02 78° S visible
30 Mar -3.6 20:49:37 10° SW 20:52:46 50° SSE 20:55:14 15° ENE visible
30 Mar -1.9 22:26:04 10° W 22:27:55 29° WNW 22:27:55 29° WNW visible
31 Mar -3.5 21:33:32 10° W 21:36:47 65° NNW 21:37:56 36° NE visible
31 Mar -0.5 23:10:23 10° WNW 23:10:36 11° WNW 23:10:36 11° WNW visible
01 Apr -3.9 20:41:03 10° WSW 20:44:19 90° SW 20:47:37 10° ENE visible
01 Apr -2.5 22:17:50 10° WNW 22:20:28 40° NNW 22:20:28 40° NNW visible
